Simultaneous Nadir Overpasses (SNOs) Predictions

Prediction of SNOs near equator between AQUA and NPP Satellite Orbit:

Table of predicted SNOs near equator for the next 14.0 days since TLE Epoch: 2/28/2015
Index Date (AQUA) Time (AQUA) AQUA Lat,Lon Date (NPP) Time (NPP) NPP Lat,Lon Distance(km) Time Diff (sec)
1 02/28/2015 04:42:24 29.97, 128.71 02/28/2015 04:32:42 30.13, 129.57 84.69 582
2 02/28/2015 05:31:47 -29.98, -63.64 02/28/2015 05:23:23 -30.13, -63.10 54.20 504
3 02/28/2015 06:21:17 29.96, 103.99 02/28/2015 06:14:10 30.02, 104.23 23.57 427
4 02/28/2015 07:08:47 -23.19, -86.66 02/28/2015 07:02:54 -23.18, -86.65 0.87 353
5 02/28/2015 07:49:36 -8.31, 87.87 02/28/2015 07:44:47 -8.31, 87.89 1.21 289
6 02/28/2015 08:36:35 16.96,-102.56 02/28/2015 08:32:59 17.03,-102.77 23.37 216
7 02/28/2015 09:24:49 -21.58, 66.13 02/28/2015 09:22:29 -21.68, 65.65 50.44 140
8 02/28/2015 10:12:57 26.08,-125.13 02/28/2015 10:11:52 26.23,-125.86 75.16 65
9 02/28/2015 11:01:24 -29.89, 43.46 02/28/2015 11:01:35 -30.09, 42.46 98.71 11
10 03/02/2015 20:58:55 29.94,-115.41 03/02/2015 20:49:34 30.13,-114.66 75.05 561
11 03/02/2015 21:48:18 -29.95, 52.24 03/02/2015 21:40:14 -30.06, 52.69 44.42 484
12 03/02/2015 22:37:49 30.00,-140.14 03/02/2015 22:31:02 30.02,-140.00 13.74 407
13 03/02/2015 23:23:06 -15.21, 31.06 03/02/2015 23:17:30 -15.21, 31.05 0.81 336
14 03/03/2015 00:04:39 -13.65,-155.09 03/03/2015 00:00:08 -13.66,-155.12 4.09 271
15 03/03/2015 00:52:47 18.14, 13.58 03/03/2015 00:49:31 18.21, 13.28 32.54 196
16 03/03/2015 01:41:01 -22.75,-177.72 03/03/2015 01:39:01 -22.85,-178.29 59.10 120
17 03/03/2015 02:29:09 27.24, -8.97 03/03/2015 02:28:24 27.40, -9.79 83.03 45
18 03/05/2015 13:15:27 29.96, 0.46 03/05/2015 13:06:26 30.07, 1.12 65.06 541
19 03/05/2015 14:04:50 -29.97, 168.11 03/05/2015 13:57:07 -30.06, 168.46 34.42 463
20 03/05/2015 14:54:20 29.95, -24.26 03/05/2015 14:47:54 29.96, -24.22 3.80 386
21 03/05/2015 15:36:28 -3.76, 149.42 03/05/2015 15:31:08 -3.76, 149.43 0.50 320
22 03/05/2015 16:20:50 -14.90, -38.94 03/05/2015 16:16:39 -14.95, -39.05 14.18 251
23 03/05/2015 17:08:57 19.44, 129.75 03/05/2015 17:06:02 19.50, 129.36 41.81 175
24 03/05/2015 17:57:13 -23.94, -61.56 03/05/2015 17:55:33 -24.08, -62.21 67.72 100
25 03/05/2015 18:45:20 28.49, 107.22 03/05/2015 18:44:55 28.69, 106.32 90.73 25
26 03/08/2015 04:42:28 -29.98, -51.29 03/08/2015 04:32:32 -30.17, -50.43 85.29 596
27 03/08/2015 05:31:58 29.96, 116.34 03/08/2015 05:23:19 30.08, 116.89 54.75 519
28 03/08/2015 06:21:21 -29.97, -76.01 03/08/2015 06:13:59 -30.00, -75.76 24.19 442
29 03/08/2015 07:09:14 24.12, 93.09 03/08/2015 07:03:07 24.12, 93.09 0.37 367
30 03/08/2015 07:50:02 6.93, -92.42 03/08/2015 07:44:59 6.94, -92.42 0.39 303
31 03/08/2015 08:36:59 -16.22, 77.24 03/08/2015 08:33:10 -16.23, 77.02 23.92 229
32 03/08/2015 09:25:07 20.71,-114.07 03/08/2015 09:22:33 20.79,-114.56 51.10 154
33 03/08/2015 10:13:22 -25.26, 54.64 03/08/2015 10:12:03 -25.42, 53.90 76.18 79
34 03/08/2015 11:01:29 29.80,-136.56 03/08/2015 11:01:26 29.97,-137.56 98.35 3
35 03/10/2015 20:58:58 -29.96, 64.60 03/10/2015 20:49:24 -30.12, 65.35 74.82 574
36 03/10/2015 21:48:28 29.95,-127.78 03/10/2015 21:40:11 30.03,-127.33 44.29 497
37 03/10/2015 22:37:51 -29.95, 39.88 03/10/2015 22:30:51 -29.95, 40.02 14.01 420
38 03/10/2015 23:23:00 14.21,-148.74 03/10/2015 23:17:11 14.21,-148.74 0.20 349
39 03/11/2015 00:04:54 12.87, 24.75 03/11/2015 00:00:11 12.86, 24.70 5.42 283
40 03/11/2015 00:53:09 -17.44,-166.60 03/11/2015 00:49:41 -17.51,-166.91 33.73 208
41 03/11/2015 01:41:16 21.98, 2.11 03/11/2015 01:39:03 22.12, 1.54 60.42 133
42 03/11/2015 02:29:31 -26.53, 170.83 03/11/2015 02:28:34 -26.69, 170.00 84.71 57
43 03/13/2015 13:15:27 -29.99,-179.53 03/13/2015 13:06:16 -30.13,-178.88 64.04 551
44 03/13/2015 14:04:57 29.98, -11.90 03/13/2015 13:57:03 30.05, -11.56 33.49 474
45 03/13/2015 14:54:15 -29.68, 155.83 03/13/2015 14:47:38 -29.68, 155.87 3.48 397
46 03/13/2015 15:36:20 2.83, -30.39 03/13/2015 15:30:49 2.83, -30.39 0.43 331
47 03/13/2015 16:21:00 14.23, 140.94 03/13/2015 16:16:39 14.26, 140.80 15.58 261
48 03/13/2015 17:09:15 -18.79, -50.41 03/13/2015 17:06:09 -18.90, -50.81 43.77 186
49 03/13/2015 17:57:22 23.34, 118.31 03/13/2015 17:55:32 23.46, 117.64 69.71 110
50 03/13/2015 18:45:37 -27.88, -72.94 03/13/2015 18:45:02 -28.08, -73.86 93.03 35




NCC Satellite Simultaneous Nadir Overpasses (SNOs) Prediction Service
